Time,TemperatureF,DewpointF,PressureIn,WindDirection,WindDirectionDegrees,WindSpeedMPH,WindSpeedGustMPH,Humidity,HourlyPrecipIn,Conditions,Clouds,dailyrainin,SoftwareType,DateUTC
2013-06-21 00:05:00,81.9,49.1,29.58,SE,125,0.0,0.0,32,0.00,,,0.00,Wunderground v.1.15,2013-06-21 06:05:00,
2013-06-21 00:15:00,81.5,50.4,29.59,SE,124,0.0,1.0,34,0.00,,,0.00,Wunderground v.1.15,2013-06-21 06:15:00,
2013-06-21 00:25:00,81.1,50.9,29.60,ESE,114,0.0,2.0,35,0.00,,,0.00,Wunderground v.1.15,2013-06-21 06:25:00,
2013-06-21 00:30:00,80.9,50.7,29.60,SE,134,1.0,1.0,35,0.00,,,0.00,Wunderground v.1.15,2013-06-21 06:30:00,
2013-06-21 00:35:00,80.7,50.5,29.60,SE,142,1.0,4.0,35,0.00,,,0.00,Wunderground v.1.15,2013-06-21 06:35:00,
2013-06-21 00:40:00,80.5,51.1,29.60,SE,129,1.0,1.0,36,0.00,,,0.00,Wunderground v.1.15,2013-06-21 06:40:00,
2013-06-21 00:45:00,80.3,50.9,29.60,ESE,119,1.0,6.0,36,0.00,,,0.00,Wunderground v.1.15,2013-06-21 06:45:00,
2013-06-21 00:50:00,80.2,50.8,29.60,SSE,152,1.0,2.0,36,0.00,,,0.00,Wunderground v.1.15,2013-06-21 06:50:00,
2013-06-21 00:55:00,80.0,50.6,29.60,East,95,2.0,2.0,36,0.00,,,0.00,Wunderground v.1.15,2013-06-21 06:55:00,
2013-06-21 01:00:00,79.8,51.2,29.60,SE,134,1.0,1.0,37,0.00,,,0.00,Wunderground v.1.15,2013-06-21 07:00:00,
2013-06-21 01:05:00,79.7,51.1,29.59,SSE,149,1.0,1.0,37,0.00,,,0.00,Wunderground v.1.15,2013-06-21 07:05:00,
2013-06-21 01:15:00,79.3,50.8,29.60,SE,134,1.0,14.0,37,0.00,,,0.00,Wunderground v.1.15,2013-06-21 07:15:00,
2013-06-21 01:25:00,79.1,51.3,29.60,SE,137,2.0,5.0,38,0.00,,,0.00,Wunderground v.1.15,2013-06-21 07:25:00,
2013-06-21 01:35:00,78.9,51.1,29.60,SE,138,3.0,3.0,38,0.00,,,0.00,Wunderground v.1.15,2013-06-21 07:35:00,
2013-06-21 01:40:00,78.8,51.0,29.60,ESE,118,2.0,2.0,38,0.00,,,0.00,Wunderground v.1.15,2013-06-21 07:40:00,
2013-06-21 01:45:00,78.7,51.0,29.60,SE,130,1.0,2.0,38,0.00,,,0.00,Wunderground v.1.15,2013-06-21 07:45:00,
2013-06-21 01:50:00,78.7,51.0,29.60,SE,142,1.0,1.0,38,0.00,,,0.00,Wunderground v.1.15,2013-06-21 07:50:00,
2013-06-21 01:55:00,78.7,51.7,29.59,SSE,157,1.0,1.0,39,0.00,,,0.00,Wunderground v.1.15,2013-06-21 07:55:00,
2013-06-21 02:05:00,78.4,51.4,29.60,SE,126,1.0,2.0,39,0.00,,,0.00,Wunderground v.1.15,2013-06-21 08:05:00,
2013-06-21 02:15:00,78.2,51.2,29.59,SE,141,1.0,2.0,39,0.00,,,0.00,Wunderground v.1.15,2013-06-21 08:15:00,
2013-06-21 02:20:00,78.0,51.7,29.59,SE,132,1.0,1.0,40,0.00,,,0.00,Wunderground v.1.15,2013-06-21 08:20:00,
2013-06-21 02:25:00,77.9,51.6,29.59,SE,132,0.0,1.0,40,0.00,,,0.00,Wunderground v.1.15,2013-06-21 08:25:00,
2013-06-21 02:30:00,77.7,51.5,29.59,ESE,123,0.0,0.0,40,0.00,,,0.00,Wunderground v.1.15,2013-06-21 08:30:00,
2013-06-21 02:40:00,77.4,51.2,29.60,SE,136,1.0,1.0,40,0.00,,,0.00,Wunderground v.1.15,2013-06-21 08:40:00,
2013-06-21 02:50:00,77.3,51.8,29.59,SE,144,1.0,1.0,41,0.00,,,0.00,Wunderground v.1.15,2013-06-21 08:50:00,
2013-06-21 02:55:00,77.2,51.7,29.59,SE,137,0.0,1.0,41,0.00,,,0.00,Wunderground v.1.15,2013-06-21 08:55:00,
2013-06-21 03:00:00,77.1,51.6,29.59,SE,138,0.0,0.0,41,0.00,,,0.00,Wunderground v.1.15,2013-06-21 09:00:00,
2013-06-21 03:05:00,77.0,51.5,29.60,SE,136,0.0,0.0,41,0.00,,,0.00,Wunderground v.1.15,2013-06-21 09:05:00,
2013-06-21 03:15:00,76.8,51.3,29.60,SE,129,0.0,0.0,41,0.00,,,0.00,Wunderground v.1.15,2013-06-21 09:15:00,
2013-06-21 03:20:00,76.8,51.3,29.60,ESE,121,1.0,1.0,41,0.00,,,0.00,Wunderground v.1.15,2013-06-21 09:20:00,
2013-06-21 03:25:00,76.8,51.3,29.61,SSE,151,1.0,1.0,41,0.00,,,0.00,Wunderground v.1.15,2013-06-21 09:25:00,
2013-06-21 03:30:00,76.8,51.3,29.60,SE,138,1.0,1.0,41,0.00,,,0.00,Wunderground v.1.15,2013-06-21 09:30:00,
2013-06-21 03:35:00,76.7,51.2,29.60,SE,136,0.0,1.0,41,0.00,,,0.00,Wunderground v.1.15,2013-06-21 09:35:00,
2013-06-21 03:45:00,76.6,51.1,29.61,SE,134,0.0,0.0,41,0.00,,,0.00,Wunderground v.1.15,2013-06-21 09:45:00,
2013-06-21 03:50:00,76.5,51.0,29.60,SE,130,0.0,0.0,41,0.00,,,0.00,Wunderground v.1.15,2013-06-21 09:50:00,
2013-06-21 03:55:00,76.4,51.6,29.60,ESE,119,0.0,0.0,42,0.00,,,0.00,Wunderground v.1.15,2013-06-21 09:55:00,
2013-06-21 04:05:00,76.2,51.4,29.61,SE,133,0.0,0.0,42,0.00,,,0.00,Wunderground v.1.15,2013-06-21 10:05:00,
2013-06-21 04:15:00,75.9,51.2,29.61,SE,138,0.0,0.0,42,0.00,,,0.00,Wunderground v.1.15,2013-06-21 10:15:00,
2013-06-21 04:20:00,75.8,51.1,29.61,ESE,117,0.0,0.0,42,0.00,,,0.00,Wunderground v.1.15,2013-06-21 10:20:00,
2013-06-21 04:25:00,75.7,51.6,29.61,SE,132,0.0,0.0,43,0.00,,,0.00,Wunderground v.1.15,2013-06-21 10:25:00,
2013-06-21 04:30:00,75.6,51.5,29.61,SE,131,0.0,0.0,43,0.00,,,0.00,Wunderground v.1.15,2013-06-21 10:30:00,
2013-06-21 04:35:00,75.4,51.3,29.61,SE,130,0.0,0.0,43,0.00,,,0.00,Wunderground v.1.15,2013-06-21 10:35:00,
2013-06-21 04:40:00,75.3,51.3,29.61,SE,132,0.0,0.0,43,0.00,,,0.00,Wunderground v.1.15,2013-06-21 10:40:00,
2013-06-21 04:45:00,75.2,51.2,29.61,SSE,149,0.0,0.0,43,0.00,,,0.00,Wunderground v.1.15,2013-06-21 10:45:00,
2013-06-21 04:55:00,74.9,50.9,29.61,SE,130,0.0,0.0,43,0.00,,,0.00,Wunderground v.1.15,2013-06-21 10:55:00,
2013-06-21 05:05:00,74.6,51.2,29.63,SE,129,0.0,0.0,44,0.00,,,0.00,Wunderground v.1.15,2013-06-21 11:05:00,
2013-06-21 05:15:00,74.3,51.0,29.63,SE,130,0.0,0.0,44,0.00,,,0.00,Wunderground v.1.15,2013-06-21 11:15:00,
2013-06-21 05:20:00,74.2,50.9,29.63,SE,132,0.0,0.0,44,0.00,,,0.00,Wunderground v.1.15,2013-06-21 11:20:00,
2013-06-21 05:25:00,74.1,50.8,29.64,SE,132,0.0,0.0,44,0.00,,,0.00,Wunderground v.1.15,2013-06-21 11:25:00,
2013-06-21 05:30:00,74.0,51.3,29.64,SE,132,0.0,0.0,45,0.00,,,0.00,Wunderground v.1.15,2013-06-21 11:30:00,
2013-06-21 05:35:00,73.8,51.1,29.65,SE,132,0.0,0.0,45,0.00,,,0.00,Wunderground v.1.15,2013-06-21 11:35:00,
2013-06-21 05:40:00,73.7,51.0,29.65,SE,132,0.0,0.0,45,0.00,,,0.00,Wunderground v.1.15,2013-06-21 11:40:00,
2013-06-21 05:45:00,73.6,50.9,29.65,SE,132,0.0,0.0,45,0.00,,,0.00,Wunderground v.1.15,2013-06-21 11:45:00,
2013-06-21 05:50:00,73.4,50.8,29.66,SE,132,0.0,0.0,45,0.00,,,0.00,Wunderground v.1.15,2013-06-21 11:50:00,
2013-06-21 05:55:00,73.3,50.7,29.65,SE,132,0.0,0.0,45,0.00,,,0.00,Wunderground v.1.15,2013-06-21 11:55:00,
2013-06-21 06:00:00,73.1,51.1,29.65,SE,132,0.0,0.0,46,0.00,,,0.00,Wunderground v.1.15,2013-06-21 12:00:00,
2013-06-21 06:05:00,73.0,51.0,29.66,SE,132,0.0,0.0,46,0.00,,,0.00,Wunderground v.1.15,2013-06-21 12:05:00,
2013-06-21 06:15:00,72.6,50.6,29.66,SE,132,0.0,0.0,46,0.00,,,0.00,Wunderground v.1.15,2013-06-21 12:15:00,
2013-06-21 06:20:00,72.4,51.0,29.66,SE,132,0.0,0.0,47,0.00,,,0.00,Wunderground v.1.15,2013-06-21 12:20:00,
2013-06-21 06:30:00,72.4,51.0,29.66,SE,136,0.0,0.0,47,0.00,,,0.00,Wunderground v.1.15,2013-06-21 12:30:00,
2013-06-21 06:40:00,72.8,51.4,29.66,SE,140,0.0,0.0,47,0.00,,,0.00,Wunderground v.1.15,2013-06-21 12:40:00,
2013-06-21 06:45:00,73.1,51.7,29.67,SE,140,0.0,0.0,47,0.00,,,0.00,Wunderground v.1.15,2013-06-21 12:45:00,
2013-06-21 06:50:00,73.3,51.8,29.66,SE,125,0.0,2.0,47,0.00,,,0.00,Wunderground v.1.15,2013-06-21 12:50:00,
2013-06-21 06:55:00,73.7,51.6,29.65,SE,130,0.0,2.0,46,0.00,,,0.00,Wunderground v.1.15,2013-06-21 12:55:00,
2013-06-21 07:00:00,74.0,51.9,29.65,SE,130,0.0,0.0,46,0.00,,,0.00,Wunderground v.1.15,2013-06-21 13:00:00,
2013-06-21 07:05:00,74.4,52.3,29.68,SE,128,0.0,0.0,46,0.00,,,0.00,Wunderground v.1.15,2013-06-21 13:05:00,
2013-06-21 07:15:00,75.4,52.6,29.67,SE,128,0.0,0.0,45,0.00,,,0.00,Wunderground v.1.15,2013-06-21 13:15:00,
2013-06-21 07:20:00,76.1,52.6,29.67,ESE,121,0.0,0.0,44,0.00,,,0.00,Wunderground v.1.15,2013-06-21 13:20:00,
2013-06-21 07:25:00,76.7,52.5,29.66,SE,130,0.0,0.0,43,0.00,,,0.00,Wunderground v.1.15,2013-06-21 13:25:00,
2013-06-21 07:30:00,77.3,52.4,29.66,SSE,147,0.0,0.0,42,0.00,,,0.00,Wunderground v.1.15,2013-06-21 13:30:00,
2013-06-21 07:40:00,78.4,52.7,29.66,SE,129,0.0,0.0,41,0.00,,,0.00,Wunderground v.1.15,2013-06-21 13:40:00,
2013-06-21 07:45:00,78.5,53.5,29.66,East,84,0.0,0.0,42,0.00,,,0.00,Wunderground v.1.15,2013-06-21 13:45:00,
2013-06-21 07:50:00,78.4,53.4,29.67,East,84,0.0,0.0,42,0.00,,,0.00,Wunderground v.1.15,2013-06-21 13:50:00,
2013-06-21 07:55:00,78.2,53.2,29.67,East,84,0.0,0.0,42,0.00,,,0.00,Wunderground v.1.15,2013-06-21 13:55:00,
2013-06-21 08:00:00,78.0,53.7,29.67,East,84,0.0,0.0,43,0.00,,,0.00,Wunderground v.1.15,2013-06-21 14:00:00,
2013-06-21 08:10:00,78.3,54.6,29.68,NE,41,0.0,0.0,44,0.00,,,0.00,Wunderground v.1.15,2013-06-21 14:10:00,
2013-06-21 08:20:00,79.1,55.3,29.68,NE,47,0.0,0.0,44,0.00,,,0.00,Wunderground v.1.15,2013-06-21 14:20:00,
2013-06-21 08:25:00,79.5,56.9,29.67,NE,50,0.0,0.0,46,0.00,,,0.00,Wunderground v.1.15,2013-06-21 14:25:00,
2013-06-21 08:30:00,79.8,55.3,29.68,ENE,77,0.0,0.0,43,0.00,,,0.00,Wunderground v.1.15,2013-06-21 14:30:00,
2013-06-21 08:35:00,80.1,54.9,29.67,ENE,60,0.0,0.0,42,0.00,,,0.00,Wunderground v.1.15,2013-06-21 14:35:00,
2013-06-21 08:45:00,80.9,55.0,29.68,North,355,0.0,0.0,41,0.00,,,0.00,Wunderground v.1.15,2013-06-21 14:45:00,
2013-06-21 08:55:00,81.8,54.4,29.67,ESE,107,0.0,1.0,39,0.00,,,0.00,Wunderground v.1.15,2013-06-21 14:55:00,
2013-06-21 09:00:00,82.4,54.2,29.67,ESE,116,0.0,0.0,38,0.00,,,0.00,Wunderground v.1.15,2013-06-21 15:00:00,
2013-06-21 09:05:00,82.6,53.7,29.67,ESE,115,0.0,0.0,37,0.00,,,0.00,Wunderground v.1.15,2013-06-21 15:05:00,
2013-06-21 09:15:00,83.1,54.1,29.67,SE,128,0.0,0.0,37,0.00,,,0.00,Wunderground v.1.15,2013-06-21 15:15:00,
2013-06-21 09:20:00,83.6,54.6,29.67,ESE,106,0.0,0.0,37,0.00,,,0.00,Wunderground v.1.15,2013-06-21 15:20:00,
2013-06-21 09:30:00,84.7,54.8,29.66,ESE,121,0.0,0.0,36,0.00,,,0.00,Wunderground v.1.15,2013-06-21 15:30:00,
2013-06-21 09:35:00,85.2,54.5,29.66,SSE,160,0.0,0.0,35,0.00,,,0.00,Wunderground v.1.15,2013-06-21 15:35:00,
2013-06-21 09:40:00,85.7,55.7,29.65,SSW,194,0.0,0.0,36,0.00,,,0.00,Wunderground v.1.15,2013-06-21 15:40:00,
2013-06-21 09:50:00,86.6,53.2,29.65,West,269,0.0,0.0,32,0.00,,,0.00,Wunderground v.1.15,2013-06-21 15:50:00,
2013-06-21 09:55:00,87.1,55.3,29.65,SE,145,0.0,0.0,34,0.00,,,0.00,Wunderground v.1.15,2013-06-21 15:55:00,
2013-06-21 10:05:00,87.8,53.4,29.66,SW,236,0.0,1.0,31,0.00,,,0.00,Wunderground v.1.15,2013-06-21 16:05:00,
2013-06-21 10:15:00,88.4,54.8,29.66,West,277,0.0,0.0,32,0.00,,,0.00,Wunderground v.1.15,2013-06-21 16:15:00,
2013-06-21 10:20:00,88.7,53.3,29.66,SE,142,0.0,0.0,30,0.00,,,0.00,Wunderground v.1.15,2013-06-21 16:20:00,
2013-06-21 10:30:00,89.5,53.0,29.65,West,265,0.0,0.0,29,0.00,,,0.00,Wunderground v.1.15,2013-06-21 16:30:00,
2013-06-21 10:40:00,90.2,52.7,29.65,SSE,157,0.0,0.0,28,0.00,,,0.00,Wunderground v.1.15,2013-06-21 16:40:00,
2013-06-21 10:45:00,90.6,51.0,29.66,SE,125,0.0,0.0,26,0.00,,,0.00,Wunderground v.1.15,2013-06-21 16:45:00,
2013-06-21 10:50:00,91.0,53.4,29.66,SE,126,0.0,3.0,28,0.00,,,0.00,Wunderground v.1.15,2013-06-21 16:50:00,
2013-06-21 10:55:00,91.5,52.8,29.65,SSE,151,0.0,3.0,27,0.00,,,0.00,Wunderground v.1.15,2013-06-21 16:55:00,
2013-06-21 11:00:00,91.8,53.1,29.65,East,95,0.0,0.0,27,0.00,,,0.00,Wunderground v.1.15,2013-06-21 17:00:00,
2013-06-21 11:05:00,92.2,51.3,29.66,East,79,0.0,0.0,25,0.00,,,0.00,Wunderground v.1.15,2013-06-21 17:05:00,
2013-06-21 11:15:00,92.7,51.7,29.66,ESE,115,0.0,0.0,25,0.00,,,0.00,Wunderground v.1.15,2013-06-21 17:15:00,
2013-06-21 11:20:00,93.1,51.0,29.66,SE,142,0.0,0.0,24,0.00,,,0.00,Wunderground v.1.15,2013-06-21 17:20:00,
2013-06-21 11:25:00,93.4,50.1,29.66,SE,128,0.0,0.0,23,0.00,,,0.00,Wunderground v.1.15,2013-06-21 17:25:00,
2013-06-21 11:30:00,93.8,50.4,29.65,East,97,0.0,0.0,23,0.00,,,0.00,Wunderground v.1.15,2013-06-21 17:30:00,
2013-06-21 11:35:00,94.1,50.6,29.64,SE,129,0.0,0.0,23,0.00,,,0.00,Wunderground v.1.15,2013-06-21 17:35:00,
2013-06-21 11:40:00,94.6,48.6,29.64,SE,146,0.0,0.0,21,0.00,,,0.00,Wunderground v.1.15,2013-06-21 17:40:00,
2013-06-21 11:50:00,95.3,47.9,29.65,North,355,0.0,0.0,20,0.00,,,0.00,Wunderground v.1.15,2013-06-21 17:50:00,
2013-06-21 11:55:00,95.5,48.0,29.63,East,80,0.0,0.0,20,0.00,,,0.00,Wunderground v.1.15,2013-06-21 17:55:00,
2013-06-21 12:00:00,95.8,48.3,29.63,North,11,0.0,0.0,20,0.00,,,0.00,Wunderground v.1.15,2013-06-21 18:00:00,
2013-06-21 12:10:00,96.5,48.9,29.63,SE,136,0.0,0.0,20,0.00,,,0.00,Wunderground v.1.15,2013-06-21 18:10:00,
2013-06-21 12:15:00,96.7,50.3,29.63,WNW,293,1.0,1.0,21,0.00,,,0.00,Wunderground v.1.15,2013-06-21 18:15:00,
2013-06-21 12:25:00,97.2,50.8,29.63,WSW,245,0.0,2.0,21,0.00,,,0.00,Wunderground v.1.15,2013-06-21 18:25:00,
2013-06-21 12:30:00,97.4,50.9,29.63,WNW,284,0.0,0.0,21,0.00,,,0.00,Wunderground v.1.15,2013-06-21 18:30:00,
2013-06-21 12:35:00,97.7,52.4,29.61,SE,140,0.0,0.0,22,0.00,,,0.00,Wunderground v.1.15,2013-06-21 18:35:00,
2013-06-21 12:45:00,97.8,51.3,29.61,ESE,119,1.0,1.0,21,0.00,,,0.00,Wunderground v.1.15,2013-06-21 18:45:00,
2013-06-21 12:50:00,97.8,49.9,29.60,WSW,239,0.0,0.0,20,0.00,,,0.00,Wunderground v.1.15,2013-06-21 18:50:00,
2013-06-21 12:55:00,97.8,51.3,29.60,WNW,288,0.0,0.0,21,0.00,,,0.00,Wunderground v.1.15,2013-06-21 18:55:00,
2013-06-21 13:00:00,97.9,51.3,29.60,SSE,159,0.0,1.0,21,0.00,,,0.00,Wunderground v.1.15,2013-06-21 19:00:00,
2013-06-21 13:05:00,98.3,51.7,29.60,SE,132,0.0,3.0,21,0.00,,,0.00,Wunderground v.1.15,2013-06-21 19:05:00,
2013-06-21 13:15:00,98.6,51.9,29.59,SE,129,1.0,1.0,21,0.00,,,0.00,Wunderground v.1.15,2013-06-21 19:15:00,
2013-06-21 13:20:00,98.8,52.1,29.58,WSW,254,1.0,1.0,21,0.00,,,0.00,Wunderground v.1.15,2013-06-21 19:20:00,
2013-06-21 13:30:00,99.4,49.9,29.58,ESE,122,1.0,1.0,19,0.00,,,0.00,Wunderground v.1.15,2013-06-21 19:30:00,
2013-06-21 13:35:00,99.4,51.2,29.58,East,87,1.0,1.0,20,0.00,,,0.00,Wunderground v.1.15,2013-06-21 19:35:00,
2013-06-21 13:40:00,99.9,51.7,29.58,ESE,123,0.0,4.0,20,0.00,,,0.00,Wunderground v.1.15,2013-06-21 19:40:00,
2013-06-21 13:45:00,100.1,50.4,29.57,SW,230,0.0,4.0,19,0.00,,,0.00,Wunderground v.1.15,2013-06-21 19:45:00,
2013-06-21 13:55:00,99.4,48.4,29.57,East,92,2.0,5.0,18,0.00,,,0.00,Wunderground v.1.15,2013-06-21 19:55:00,
2013-06-21 14:00:00,98.8,50.8,29.57,West,262,1.0,1.0,20,0.00,,,0.00,Wunderground v.1.15,2013-06-21 20:00:00,
2013-06-21 14:05:00,98.2,48.9,29.58,SSE,165,0.0,1.0,19,0.00,,,0.00,Wunderground v.1.15,2013-06-21 20:05:00,
2013-06-21 14:15:00,98.5,50.5,29.57,West,273,0.0,0.0,20,0.00,,,0.00,Wunderground v.1.15,2013-06-21 20:15:00,
2013-06-21 14:25:00,98.3,49.0,29.57,ESE,109,1.0,1.0,19,0.00,,,0.00,Wunderground v.1.15,2013-06-21 20:25:00,
2013-06-21 14:35:00,98.8,47.9,29.56,SE,146,1.0,3.0,18,0.00,,,0.00,Wunderground v.1.15,2013-06-21 20:35:00,
2013-06-21 14:40:00,99.0,48.1,29.55,SE,134,0.0,0.0,18,0.00,,,0.00,Wunderground v.1.15,2013-06-21 20:40:00,
2013-06-21 14:45:00,99.3,48.3,29.55,WSW,245,0.0,0.0,18,0.00,,,0.00,Wunderground v.1.15,2013-06-21 20:45:00,
2013-06-21 14:50:00,100.0,47.4,29.55,WSW,242,0.0,0.0,17,0.00,,,0.00,Wunderground v.1.15,2013-06-21 20:50:00,
2013-06-21 14:55:00,100.5,47.8,29.55,West,259,0.0,3.0,17,0.00,,,0.00,Wunderground v.1.15,2013-06-21 20:55:00,
2013-06-21 15:00:00,100.7,46.3,29.54,ESE,109,1.0,1.0,16,0.00,,,0.00,Wunderground v.1.15,2013-06-21 21:00:00,
2013-06-21 15:05:00,100.8,46.4,29.55,ESE,113,1.0,1.0,16,0.00,,,0.00,Wunderground v.1.15,2013-06-21 21:05:00,
2013-06-21 15:15:00,101.2,46.7,29.54,WSW,240,1.0,2.0,16,0.00,,,0.00,Wunderground v.1.15,2013-06-21 21:15:00,
2013-06-21 15:20:00,101.2,46.7,29.54,WNW,283,1.0,1.0,16,0.00,,,0.00,Wunderground v.1.15,2013-06-21 21:20:00,
2013-06-21 15:25:00,101.3,46.8,29.54,West,263,1.0,1.0,16,0.00,,,0.00,Wunderground v.1.15,2013-06-21 21:25:00,
2013-06-21 15:30:00,101.3,46.8,29.54,West,274,1.0,1.0,16,0.00,,,0.00,Wunderground v.1.15,2013-06-21 21:30:00,
2013-06-21 15:40:00,101.5,47.0,29.52,WNW,283,0.0,0.0,16,0.00,,,0.00,Wunderground v.1.15,2013-06-21 21:40:00,
2013-06-21 15:45:00,101.4,46.9,29.53,ENE,77,1.0,1.0,16,0.00,,,0.00,Wunderground v.1.15,2013-06-21 21:45:00,
2013-06-21 15:55:00,101.4,48.5,29.53,West,267,0.0,0.0,17,0.00,,,0.00,Wunderground v.1.15,2013-06-21 21:55:00,
2013-06-21 16:00:00,101.4,46.9,29.52,SE,136,0.0,0.0,16,0.00,,,0.00,Wunderground v.1.15,2013-06-21 22:00:00,
2013-06-21 16:05:00,101.2,48.3,29.51,WNW,301,0.0,0.0,17,0.00,,,0.00,Wunderground v.1.15,2013-06-21 22:05:00,
2013-06-21 16:15:00,100.9,46.5,29.51,NNE,30,0.0,0.0,16,0.00,,,0.00,Wunderground v.1.15,2013-06-21 22:15:00,
2013-06-21 16:25:00,100.4,47.7,29.52,ESE,114,1.0,1.0,17,0.00,,,0.00,Wunderground v.1.15,2013-06-21 22:25:00,
2013-06-21 16:30:00,100.2,47.5,29.51,SW,232,1.0,1.0,17,0.00,,,0.00,Wunderground v.1.15,2013-06-21 22:30:00,
2013-06-21 16:40:00,100.2,47.5,29.51,East,95,1.0,1.0,17,0.00,,,0.00,Wunderground v.1.15,2013-06-21 22:40:00,
2013-06-21 16:45:00,100.0,47.4,29.51,WSW,252,0.0,1.0,17,0.00,,,0.00,Wunderground v.1.15,2013-06-21 22:45:00,
2013-06-21 16:55:00,99.5,47.0,29.51,SE,133,0.0,0.0,17,0.00,,,0.00,Wunderground v.1.15,2013-06-21 22:55:00,
2013-06-21 17:00:00,99.6,48.6,29.50,WSW,242,0.0,3.0,18,0.00,,,0.00,Wunderground v.1.15,2013-06-21 23:00:00,
2013-06-21 17:05:00,99.3,46.8,29.51,West,267,0.0,3.0,17,0.00,,,0.00,Wunderground v.1.15,2013-06-21 23:05:00,
2013-06-21 17:15:00,98.4,46.1,29.51,West,265,0.0,1.0,17,0.00,,,0.00,Wunderground v.1.15,2013-06-21 23:15:00,
2013-06-21 17:25:00,98.0,47.3,29.51,ENE,76,0.0,0.0,18,0.00,,,0.00,Wunderground v.1.15,2013-06-21 23:25:00,
2013-06-21 17:30:00,97.9,45.7,29.51,East,94,0.0,0.0,17,0.00,,,0.00,Wunderground v.1.15,2013-06-21 23:30:00,
2013-06-21 17:40:00,97.6,45.4,29.51,West,272,0.0,0.0,17,0.00,,,0.00,Wunderground v.1.15,2013-06-21 23:40:00,
2013-06-21 17:45:00,97.6,45.4,29.51,SE,129,0.0,0.0,17,0.00,,,0.00,Wunderground v.1.15,2013-06-21 23:45:00,
2013-06-21 17:50:00,97.7,45.5,29.50,SW,224,0.0,0.0,17,0.00,,,0.00,Wunderground v.1.15,2013-06-21 23:50:00,
2013-06-21 18:00:00,97.7,42.2,29.51,SW,233,0.0,0.0,15,0.00,,,0.00,Wunderground v.1.15,2013-06-22 00:00:00,
2013-06-21 18:05:00,97.7,42.2,29.50,SSW,202,0.0,0.0,15,0.00,,,0.00,Wunderground v.1.15,2013-06-22 00:05:00,
2013-06-21 18:15:00,97.5,42.1,29.50,West,270,0.0,0.0,15,0.00,,,0.00,Wunderground v.1.15,2013-06-22 00:15:00,
2013-06-21 18:20:00,97.3,40.1,29.50,NW,306,0.0,0.0,14,0.00,,,0.00,Wunderground v.1.15,2013-06-22 00:20:00,
2013-06-21 18:30:00,96.9,41.6,29.51,SW,236,0.0,0.0,15,0.00,,,0.00,Wunderground v.1.15,2013-06-22 00:30:00,
2013-06-21 18:35:00,96.9,41.6,29.51,WNW,290,0.0,0.0,15,0.00,,,0.00,Wunderground v.1.15,2013-06-22 00:35:00,
2013-06-21 18:40:00,96.7,41.4,29.51,WNW,292,1.0,1.0,15,0.00,,,0.00,Wunderground v.1.15,2013-06-22 00:40:00,
2013-06-21 18:45:00,96.4,41.2,29.51,WNW,287,2.0,2.0,15,0.00,,,0.00,Wunderground v.1.15,2013-06-22 00:45:00,
2013-06-21 18:50:00,96.1,42.6,29.51,WSW,256,1.0,1.0,16,0.00,,,0.00,Wunderground v.1.15,2013-06-22 00:50:00,
2013-06-21 18:55:00,95.9,42.5,29.51,WNW,284,1.0,1.0,16,0.00,,,0.00,Wunderground v.1.15,2013-06-22 00:55:00,
2013-06-21 19:00:00,95.7,42.3,29.51,West,271,1.0,1.0,16,0.00,,,0.00,Wunderground v.1.15,2013-06-22 01:00:00,
2013-06-21 19:05:00,95.6,42.3,29.50,WNW,286,0.0,1.0,16,0.00,,,0.00,Wunderground v.1.15,2013-06-22 01:05:00,
2013-06-21 19:15:00,95.3,42.0,29.50,West,270,0.0,0.0,16,0.00,,,0.00,Wunderground v.1.15,2013-06-22 01:15:00,
2013-06-21 19:20:00,95.1,40.2,29.50,WNW,292,1.0,3.0,15,0.00,,,0.00,Wunderground v.1.15,2013-06-22 01:20:00,
2013-06-21 19:25:00,94.8,38.2,29.51,West,276,1.0,3.0,14,0.00,,,0.00,Wunderground v.1.15,2013-06-22 01:25:00,
2013-06-21 19:30:00,94.6,39.8,29.51,West,275,1.0,1.0,15,0.00,,,0.00,Wunderground v.1.15,2013-06-22 01:30:00,
2013-06-21 19:40:00,94.2,37.7,29.51,West,277,0.0,0.0,14,0.00,,,0.00,Wunderground v.1.15,2013-06-22 01:40:00,
2013-06-21 19:45:00,94.0,39.3,29.51,West,275,0.0,0.0,15,0.00,,,0.00,Wunderground v.1.15,2013-06-22 01:45:00,
2013-06-21 19:55:00,93.7,39.1,29.52,West,268,0.0,0.0,15,0.00,,,0.00,Wunderground v.1.15,2013-06-22 01:55:00,
2013-06-21 20:00:00,93.5,37.2,29.52,West,259,0.0,0.0,14,0.00,,,0.00,Wunderground v.1.15,2013-06-22 02:00:00,
2013-06-21 20:05:00,93.4,38.8,29.50,West,259,0.0,0.0,15,0.00,,,0.00,Wunderground v.1.15,2013-06-22 02:05:00,
2013-06-21 20:15:00,92.9,38.4,29.50,West,259,0.0,0.0,15,0.00,,,0.00,Wunderground v.1.15,2013-06-22 02:15:00,
2013-06-21 20:20:00,92.7,36.5,29.50,West,259,0.0,0.0,14,0.00,,,0.00,Wunderground v.1.15,2013-06-22 02:20:00,
2013-06-21 20:25:00,92.3,36.2,29.51,NW,306,0.0,0.0,14,0.00,,,0.00,Wunderground v.1.15,2013-06-22 02:25:00,
2013-06-21 20:30:00,91.9,35.9,29.51,WNW,284,0.0,0.0,14,0.00,,,0.00,Wunderground v.1.15,2013-06-22 02:30:00,
2013-06-21 20:35:00,91.7,35.7,29.51,WNW,284,0.0,0.0,14,0.00,,,0.00,Wunderground v.1.15,2013-06-22 02:35:00,
2013-06-21 20:40:00,91.5,35.6,29.51,WNW,284,0.0,0.0,14,0.00,,,0.00,Wunderground v.1.15,2013-06-22 02:40:00,
2013-06-21 20:50:00,91.0,36.9,29.51,WNW,284,0.0,0.0,15,0.00,,,0.00,Wunderground v.1.15,2013-06-22 02:50:00,
2013-06-21 21:00:00,90.5,36.5,29.52,WNW,284,0.0,0.0,15,0.00,,,0.00,Wunderground v.1.15,2013-06-22 03:00:00,
2013-06-21 21:05:00,90.2,37.9,29.51,WNW,284,0.0,0.0,16,0.00,,,0.00,Wunderground v.1.15,2013-06-22 03:05:00,
2013-06-21 21:15:00,89.5,35.7,29.50,WNW,284,0.0,0.0,15,0.00,,,0.00,Wunderground v.1.15,2013-06-22 03:15:00,
2013-06-21 21:25:00,89.0,35.3,29.52,WNW,284,0.0,0.0,15,0.00,,,0.00,Wunderground v.1.15,2013-06-22 03:25:00,
2013-06-21 21:30:00,88.7,36.7,29.52,WNW,284,0.0,0.0,16,0.00,,,0.00,Wunderground v.1.15,2013-06-22 03:30:00,
2013-06-21 21:35:00,88.3,36.4,29.52,WNW,284,0.0,0.0,16,0.00,,,0.00,Wunderground v.1.15,2013-06-22 03:35:00,
2013-06-21 21:40:00,87.9,37.6,29.52,WNW,284,0.0,0.0,17,0.00,,,0.00,Wunderground v.1.15,2013-06-22 03:40:00,
2013-06-21 21:45:00,87.4,37.2,29.53,WNW,284,0.0,0.0,17,0.00,,,0.00,Wunderground v.1.15,2013-06-22 03:45:00,
2013-06-21 21:55:00,86.6,35.1,29.54,WNW,284,0.0,0.0,16,0.00,,,0.00,Wunderground v.1.15,2013-06-22 03:55:00,
2013-06-21 22:00:00,86.3,36.3,29.54,WNW,284,0.0,0.0,17,0.00,,,0.00,Wunderground v.1.15,2013-06-22 04:00:00,
2013-06-21 22:05:00,85.7,35.9,29.53,WNW,284,0.0,0.0,17,0.00,,,0.00,Wunderground v.1.15,2013-06-22 04:05:00,
2013-06-21 22:10:00,85.2,38.3,29.53,WNW,284,0.0,0.0,19,0.00,,,0.00,Wunderground v.1.15,2013-06-22 04:10:00,
2013-06-21 22:15:00,84.7,37.9,29.54,WNW,284,0.0,0.0,19,0.00,,,0.00,Wunderground v.1.15,2013-06-22 04:15:00,
2013-06-21 22:20:00,84.3,36.2,29.54,WNW,284,0.0,0.0,18,0.00,,,0.00,Wunderground v.1.15,2013-06-22 04:20:00,
2013-06-21 22:25:00,83.9,35.8,29.54,WNW,284,0.0,0.0,18,0.00,,,0.00,Wunderground v.1.15,2013-06-22 04:25:00,
2013-06-21 22:30:00,83.5,35.5,29.54,WNW,284,0.0,0.0,18,0.00,,,0.00,Wunderground v.1.15,2013-06-22 04:30:00,
2013-06-21 22:40:00,82.8,36.3,29.55,WNW,284,0.0,0.0,19,0.00,,,0.00,Wunderground v.1.15,2013-06-22 04:40:00,
2013-06-21 22:45:00,82.5,36.1,29.55,WNW,284,0.0,0.0,19,0.00,,,0.00,Wunderground v.1.15,2013-06-22 04:45:00,
2013-06-21 22:50:00,82.3,37.2,29.55,WNW,284,0.0,0.0,20,0.00,,,0.00,Wunderground v.1.15,2013-06-22 04:50:00,
2013-06-21 22:55:00,81.9,34.2,29.55,WNW,284,0.0,0.0,18,0.00,,,0.00,Wunderground v.1.15,2013-06-22 04:55:00,
2013-06-21 23:05:00,81.3,33.7,29.55,WNW,284,0.0,0.0,18,0.00,,,0.00,Wunderground v.1.15,2013-06-22 05:05:00,
2013-06-21 23:15:00,80.8,33.3,29.54,WNW,284,0.0,0.0,18,0.00,,,0.00,Wunderground v.1.15,2013-06-22 05:15:00,
2013-06-21 23:25:00,80.3,32.9,29.55,WNW,284,0.0,0.0,18,0.00,,,0.00,Wunderground v.1.15,2013-06-22 05:25:00,
2013-06-21 23:30:00,80.0,34.0,29.55,WNW,284,0.0,0.0,19,0.00,,,0.00,Wunderground v.1.15,2013-06-22 05:30:00,
2013-06-21 23:35:00,79.8,32.5,29.55,WNW,284,0.0,0.0,18,0.00,,,0.00,Wunderground v.1.15,2013-06-22 05:35:00,
2013-06-21 23:40:00,79.6,32.3,29.55,WNW,284,0.0,0.0,18,0.00,,,0.00,Wunderground v.1.15,2013-06-22 05:40:00,
2013-06-21 23:45:00,79.4,32.2,29.56,WNW,284,0.0,0.0,18,0.00,,,0.00,Wunderground v.1.15,2013-06-22 05:45:00,
2013-06-21 23:50:00,79.2,32.0,29.56,WNW,284,0.0,0.0,18,0.00,,,0.00,Wunderground v.1.15,2013-06-22 05:50:00,
2013-06-21 23:55:00,79.1,31.9,29.56,WNW,284,0.0,0.0,18,0.00,,,0.00,Wunderground v.1.15,2013-06-22 05:55:00,